Kuujjuarapik Airport
CYGW : rendu visible

Aérodrome :











RETROUVEZ-NOUS SUR...

 
LOGIN :

S'inscrire | Disclaimer

   EN    FR    IT 

 









Légende :    VFR   VFR Marginal   IFR   IFR Intensif   IFR Très Intensif
Visi : 
Plafond : 
>= 8 km
>= 3000ft
5 à 8 km
1000 à 3000 ft
1500m à 5 km
500 à 1000 ft
800 à 1500m
200 à 500 ft
< 800m
< 200 ft
Symboles :   Orages  Brouillard  Fortes neiges  Fortes précipitations  Vent > 20 kt






- Altitude de l'aérodrome : 34 ft
- Code IATA : YGW


CYGW - Kuujjuarapik

DERNIER METAR :
  • 011200Z AUTO VRB02KT 9SM OVC048 M01/M07 A3014 RMK SLP208

METARs EXPIRÉS :
  • 011100Z AUTO VRB02KT 9SM OVC048 M01/M06 A3013 RMK SLP206
  • 011000Z AUTO 00000KT 9SM OVC048 M02/M05 A3012 RMK SLP203

TAF TAF CYGW
Valide du 01 à 12h jusqu'au 02 à 00h UTC


011134Z 0112/0124 VRB03KT P6SM OVC040 RMK FCST BASED ON AUTO OBS. NXT FCST BY 011800Z
FIR CZUL / Amérique du Nord



MET'MAP, la Météo Aéronautique d'un coup d'oeil ! - Copyright ORBIFLY Décembre 2007 - Disclaimer

ORBIFLY MET'MAP TEAM :

Programmation & Développement : Alexandra Zaïnal
Sur une idée originale de : Baudouin d'Aumeries
Assistance à la programmation : Marc-Olivier Méhu
Soutien technique & logistique : Manuel Goepfert

Contact : metmap@orbifly.com




SOURCES & CREDITS :

   NOAA       Earth
Advisory